CW0572 Weather Reports


Display with metric or nautical units.
time (UTC)temp
F
wind
direction
speed
MPH
gust
MPH
rain 1hr
in
rain 24hr
in
rain mn
in
humidity
%
barometer
mb
20181210034458 64 294 0.0 17.0 0.00 1.07 1.07 87 1013.5
20181210033957 64 282 6.0 11.0 0.00 1.07 1.07 87 1013.6
20181210033458 64 262 6.0 11.0 0.00 1.07 1.07 87 1013.6
20181210032958 64 258 0.0 15.0 0.00 1.07 1.07 86 1013.5
20181210032457 64 266 0.0 15.0 0.00 1.07 1.07 86 1013.5
20181210031958 64 225 8.0 15.0 0.00 1.07 1.07 86 1013.5
20181210031458 64 242 4.0 15.0 0.00 1.07 1.07 86 1013.5
20181210030958 64 241 11.0 19.0 0.00 1.07 1.07 86 1013.5
20181210030458 65 261 0.0 19.0 0.00 1.07 1.07 86 1013.5
20181210025958 64 222 4.0 17.0 0.00 1.07 1.07 87 1013.4
20181210025458 64 242 4.0 15.0 0.00 1.07 1.07 87 1013.4
20181210024958 64 271 0.0 13.0 0.00 1.07 1.07 88 1013.4
20181210024458 65 258 2.0 13.0 0.00 1.07 1.07 88 1013.3
20181210023958 65 248 0.0 11.0 0.00 1.07 1.07 87 1013.3
20181210023458 65 275 2.0 13.0 0.00 1.07 1.07 87 1013.3
20181210022958 65 313 0.0 15.0 0.00 1.07 1.07 87 1013.2
20181210022458 65 260 2.0 15.0 0.00 1.07 1.07 87 1013.1
20181210021958 65 301 4.0 13.0 0.00 1.07 1.07 87 1013.2
20181210021458 65 251 8.0 11.0 0.00 1.07 1.07 87 1013.1
20181210020958 66 235 0.0 15.0 0.00 1.07 1.07 87 1013.2
20181210020457 66 242 6.0 15.0 0.00 1.07 1.07 87 1013.1
20181210015957 66 249 11.0 13.0 0.00 1.07 1.07 87 1013.0
20181210015458 66 239 0.0 13.0 0.00 1.07 1.07 87 1013.0
20181210014958 66 256 0.0 13.0 0.00 1.07 1.07 87 1013.1
20181210014458 66 227 11.0 15.0 0.00 1.07 1.07 87 1013.1
20181210013958 66 260 13.0 17.0 0.00 1.07 1.07 86 1013.0
20181210013458 66 273 4.0 19.0 0.00 1.07 1.07 86 1013.0
20181210012957 66 228 2.0 19.0 0.00 1.07 1.07 85 1013.0
20181210012458 66 259 15.0 17.0 0.00 1.07 1.07 85 1013.0
20181210011958 66 252 4.0 19.0 0.00 1.07 1.07 86 1013.0
20181210011458 66 256 8.0 19.0 0.00 1.07 1.07 86 1013.0
20181210010958 66 259 6.0 15.0 0.00 1.07 1.07 86 1013.0
20181210010458 66 246 11.0 21.0 0.00 1.07 1.07 86 1012.9
20181210005957 67 249 0.0 21.0 0.00 1.07 1.07 86 1012.9
20181210005457 67 272 8.0 15.0 0.00 1.07 1.07 86 1012.8
20181210004958 67 229 2.0 19.0 0.00 1.07 1.07 86 1012.8
20181210004458 67 229 0.0 19.0 0.00 1.07 1.07 85 1012.7
20181210003958 67 287 2.0 21.0 0.00 1.07 1.07 85 1012.6
20181210003457 67 239 8.0 21.0 0.00 1.07 1.07 85 1012.7
20181210002957 67 289 6.0 21.0 0.00 1.07 1.07 84 1012.5
20181210002458 67 257 6.0 23.0 0.00 1.07 1.07 84 1012.5
20181210001958 67 211 11.0 23.0 0.00 1.07 1.07 84 1012.5
20181210001457 68 235 2.0 15.0 0.00 1.07 1.07 84 1012.6
20181210000958 68 300 8.0 19.0 0.00 1.07 1.07 84 1012.5
20181210000457 68 269 6.0 19.0 0.00 1.07 1.07 84 1012.4
20181209235958 68 283 11.0 17.0 0.00 1.07 1.07 84 1012.3
20181209235458 68 261 13.0 19.0 0.00 1.07 1.07 85 1012.3
20181209234957 68 226 4.0 19.0 0.00 1.07 1.07 85 1012.3
20181209234458 68 237 2.0 15.0 0.00 1.07 1.07 85 1012.3
20181209233957 69 282 8.0 25.0 0.00 1.07 1.07 86 1012.2
20181209233458 69 260 2.0 25.0 0.00 1.07 1.07 86 1012.3
20181209232957 69 208 11.0 19.0 0.00 1.07 1.07 87 1012.2
20181209232457 69 282 6.0 19.0 0.00 1.07 1.07 88 1012.1
20181209231957 69 286 8.0 17.0 0.00 1.07 1.07 89 1012.1
20181209231458 69 221 11.0 25.0 0.00 1.07 1.07 89 1012.0
20181209230958 69 251 13.0 25.0 0.00 1.07 1.07 90 1012.0
20181209230458 69 272 2.0 15.0 0.00 1.07 1.07 90 1012.0
20181209225957 69 272 2.0 11.0 0.00 1.07 1.07 90 1011.9
20181209225457 69 246 2.0 11.0 0.00 1.07 1.07 90 1011.9
20181209224957 69 262 0.0 8.0 0.00 1.07 1.07 90 1011.7
20181209224457 69 234 0.0 8.0 0.00 1.07 1.07 90 1011.6
20181209223958 69 258 0.0 8.0 0.00 1.07 1.07 90 1011.6
20181209223457 69 254 0.0 8.0 0.00 1.07 1.07 90 1011.6
20181209222958 69 245 0.0 19.0 0.00 1.07 1.07 90 1011.6
20181209222458 69 238 0.0 19.0 0.00 1.07 1.07 90 1011.6
20181209221958 69 242 19.0 19.0 0.00 1.07 1.07 89 1011.6
20181209221458 70 257 0.0 11.0 0.00 1.07 1.07 89 1011.6
20181209220958 70 231 0.0 17.0 0.00 1.07 1.07 89 1011.5
20181209220457 70 241 0.0 17.0 0.00 1.07 1.07 88 1011.4
20181209215958 70 245 0.0 17.0 0.00 1.07 1.07 88 1011.3
20181209215458 70 250 0.0 23.0 0.00 1.07 1.07 88 1011.4
20181209214958 70 250 4.0 25.0 0.00 1.07 1.07 88 1011.4
20181209214458 71 242 4.0 25.0 0.00 1.07 1.07 87 1011.5
20181209213957 71 269 17.0 27.0 0.00 1.07 1.07 87 1011.4
20181209213457 71 258 4.0 27.0 0.00 1.07 1.07 88 1011.5
20181209212957 72 231 17.0 17.0 0.00 1.07 1.07 90 1011.3
20181209212457 72 241 2.0 11.0 0.00 1.07 1.07 90 1011.1
20181209211957 72 194 0.0 8.0 0.00 1.07 1.07 90 1011.0
20181209211458 72 185 0.0 15.0 0.00 1.07 1.07 90 1010.9
20181209210958 72 235 0.0 15.0 0.00 1.07 1.07 91 1011.0
20181209210457 72 291 0.0 11.0 0.00 1.07 1.07 91 1010.9
20181209205957 72 227 0.0 6.0 0.00 1.07 1.07 92 1010.9
20181209205457 72 233 0.0 13.0 0.00 1.07 1.07 93 1010.9
20181209204958 71 224 0.0 13.0 0.00 1.07 1.07 93 1011.0
20181209204457 71 241 0.0 8.0 0.00 1.07 1.07 94 1010.9
20181209203958 71 15 0.0 6.0 0.00 1.07 1.07 94 1011.0
20181209203458 71 237 0.0 8.0 0.00 1.07 1.07 95 1011.0
20181209202957 71 184 0.0 8.0 0.00 1.07 1.07 95 1011.0
20181209202457 71 241 8.0 19.0 0.00 1.07 1.07 95 1011.0
20181209201957 71 207 4.0 19.0 0.01 1.07 1.07 95 1011.0
20181209201458 71 214 6.0 11.0 0.01 1.07 1.07 95 1011.0
20181209200957 71 157 2.0 15.0 0.01 1.07 1.07 96 1011.0
20181209200457 71 171 0.0 15.0 0.01 1.07 1.07 96 1011.1
20181209195957 70 235 2.0 11.0 0.01 1.07 1.07 97 1011.1
20181209195457 70 243 8.0 11.0 0.01 1.07 1.07 97 1011.1
20181209194958 70 187 0.0 11.0 0.01 1.07 1.07 97 1011.1
20181209194457 70 196 2.0 13.0 0.02 1.07 1.07 97 1011.2
20181209193957 70 275 4.0 13.0 0.02 1.07 1.07 97 1011.3
20181209193457 69 277 2.0 8.0 0.02 1.07 1.07 97 1011.3
20181209192958 69 272 0.0 8.0 0.02 1.07 1.07 97 1011.3
20181209192457 69 276 0.0 8.0 0.02 1.07 1.07 97 1011.3
20181209191958 69 250 0.0 6.0 0.01 1.06 1.06 97 1011.4
20181209191457 69 250 0.0 8.0 0.01 1.06 1.06 97 1011.4
20181209190958 69 250 0.0 8.0 0.01 1.06 1.06 97 1011.4
20181209190459 69 228 0.0 13.0 0.01 1.06 1.06 97 1011.6
20181209185958 69 190 4.0 13.0 0.01 1.06 1.06 97 1011.7
20181209185457 68 245 2.0 8.0 0.02 1.06 1.06 97 1011.7
20181209184957 68 239 0.0 8.0 0.02 1.06 1.06 97 1011.8
20181209184457 68 264 0.0 4.0 0.06 1.05 1.05 97 1011.9
20181209183958 69 262 2.0 11.0 0.07 1.05 1.05 97 1011.9
20181209183457 69 262 2.0 13.0 0.10 1.05 1.05 97 1011.8
20181209182958 69 198 4.0 13.0 0.14 1.05 1.05 97 1012.0
20181209182457 69 249 0.0 8.0 0.16 1.05 1.05 97 1012.0
20181209181957 68 249 2.0 8.0 0.18 1.05 1.05 97 1012.1
20181209181457 68 248 0.0 8.0 0.20 1.05 1.05 97 1012.1
20181209180957 68 250 8.0 8.0 0.22 1.05 1.05 97 1012.1
20181209180458 68 276 2.0 4.0 0.24 1.05 1.05 97 1012.0
20181209175957 68 266 0.0 6.0 0.27 1.05 1.05 97 1012.1
20181209175458 68 266 0.0 6.0 0.27 1.04 1.04 97 1012.3
20181209174957 68 171 0.0 8.0 0.32 1.04 1.04 97 1012.3
20181209174457 68 170 0.0 8.0 0.44 0.99 0.99 96 1012.5
20181209173958 68 251 0.0 15.0 0.59 0.98 0.98 96 1012.6
20181209173457 68 264 0.0 15.0 0.58 0.95 0.95 96 1012.9
20181209172958 68 195 0.0 6.0 0.54 0.91 0.91 96 1013.0
20181209172457 68 179 0.0 6.0 0.53 0.89 0.89 97 1013.3
20181209171958 68 179 0.0 6.0 0.52 0.87 0.87 96 1013.2
20181209171457 68 185 0.0 6.0 0.50 0.85 0.85 96 1013.4
20181209170958 69 185 0.0 13.0 0.49 0.83 0.83 96 1013.7
20181209170458 69 191 0.0 13.0 0.48 0.81 0.81 96 1013.7
20181209165958 69 215 2.0 13.0 0.47 0.78 0.78 96 1013.9
20181209165457 70 231 0.0 15.0 0.48 0.77 0.77 96 1013.6
20181209164957 70 278 8.0 15.0 0.46 0.72 0.72 97 1013.7
20181209164457 71 280 15.0 15.0 0.32 0.55 0.55 97 1013.5
20181209163957 70 243 11.0 11.0 0.18 0.39 0.39 97 1013.9
20181209163457 70 127 4.0 6.0 0.18 0.37 0.37 97 1013.9
20181209162957 70 127 0.0 6.0 0.20 0.37 0.37 97 1013.5
20181209162457 70 142 0.0 4.0 0.20 0.36 0.36 97 1013.5
20181209161957 70 158 0.0 4.0 0.22 0.35 0.35 97 1013.3
20181209161457 70 133 4.0 11.0 0.24 0.35 0.35 97 1013.3
20181209160958 70 171 4.0 11.0 0.24 0.34 0.34 97 1013.8
20181209160458 70 200 4.0 8.0 0.24 0.33 0.33 96 1014.0
20181209155957 70 168 0.0 8.0 0.26 0.31 0.31 96 1014.2
20181209155457 70 181 0.0 8.0 0.27 0.29 0.29 96 1014.3
20181209154957 70 178 4.0 8.0 0.24 0.26 0.26 96 1014.4
20181209154457 70 156 2.0 6.0 0.22 0.23 0.23 96 1014.6
20181209153957 70 155 0.0 6.0 0.20 0.21 0.21 96 1014.5
20181209153457 70 153 0.0 6.0 0.18 0.19 0.19 96 1014.6
20181209152957 70 169 0.0 4.0 0.16 0.17 0.17 96 1014.6
20181209152457 70 169 0.0 4.0 0.16 0.16 0.16 96 1014.4
20181209151957 70 169 0.0 4.0 0.13 0.13 0.13 96 1014.7
20181209151457 70 161 2.0 4.0 0.11 0.11 0.11 96 1014.6
20181209150957 70 158 0.0 4.0 0.10 0.10 0.10 95 1014.6
20181209150457 70 169 0.0 4.0 0.09 0.09 0.09 95 1014.5
20181209145957 70 170 0.0 4.0 0.05 0.05 0.05 95 1014.5
20181209145457 70 175 4.0 6.0 0.02 0.02 0.02 95 1014.5
20181209144957 70 133 2.0 6.0 0.02 0.02 0.02 95 1014.5
20181209144457 70 129 0.0 6.0 0.01 0.01 0.01 94 1014.3
20181209143957 70 150 2.0 4.0 0.01 0.01 0.01 94 1014.4
20181209143457 70 150 0.0 4.0 0.01 0.01 0.01 94 1014.4
20181209142957 70 150 0.0 8.0 0.01 0.01 0.01 94 1014.5
20181209142458 70 144 0.0 8.0 0.00 0.00 0.00 94 1014.5
20181209141958 70 108 0.0 8.0 0.00 0.00 0.00 94 1014.5
20181209141457 70 149 6.0 8.0 0.00 0.00 0.00 93 1014.6
20181209140957 70 186 0.0 8.0 0.00 0.00 0.00 93 1014.6
20181209140457 70 163 4.0 8.0 0.00 0.00 0.00 93 1014.5
20181209135957 70 171 0.0 6.0 0.00 0.00 0.00 93 1014.3
20181209135457 70 160 0.0 11.0 0.00 0.00 0.00 93 1014.2
20181209134957 70 146 2.0 11.0 0.00 0.00 0.00 93 1014.1
20181209134458 70 101 11.0 11.0 0.00 0.00 0.00 93 1014.0
20181209133958 70 173 0.0 6.0 0.00 0.00 0.00 93 1014.1
20181209133457 70 142 0.0 6.0 0.00 0.00 0.00 93 1014.1
20181209132957 70 146 2.0 8.0 0.00 0.00 0.00 93 1014.1
20181209132457 70 181 2.0 8.0 0.00 0.00 0.00 93 1014.3
20181209131957 70 154 0.0 8.0 0.00 0.00 0.00 93 1014.3
20181209131457 70 184 8.0 8.0 0.00 0.00 0.00 93 1014.1
20181209130957 70 170 2.0 11.0 0.00 0.00 0.00 93 1014.3
20181209130457 70 165 6.0 11.0 0.00 0.00 0.00 93 1014.3
20181209125957 70 149 0.0 17.0 0.00 0.00 0.00 93 1014.1
20181209125457 70 159 0.0 17.0 0.00 0.00 0.00 93 1014.3
20181209124957 70 143 4.0 17.0 0.00 0.00 0.00 93 1014.4
20181209124457 70 162 2.0 8.0 0.00 0.00 0.00 93 1014.4
20181209123958 70 165 4.0 8.0 0.00 0.00 0.00 93 1014.3
20181209123457 70 136 0.0 15.0 0.00 0.00 0.00 93 1014.2
20181209122957 70 141 4.0 17.0 0.00 0.00 0.00 93 1014.1
20181209122457 70 117 0.0 17.0 0.00 0.00 0.00 93 1014.0
20181209121957 70 197 15.0 15.0 0.00 0.00 0.00 93 1014.0
20181209121457 70 169 2.0 11.0 0.00 0.00 0.00 93 1014.0
20181209120958 70 165 0.0 8.0 0.00 0.00 0.00 93 1013.9
20181209120457 70 142 4.0 15.0 0.00 0.00 0.00 93 1013.8
20181209115957 70 119 2.0 15.0 0.00 0.00 0.00 94 1013.8
20181209115457 70 149 0.0 8.0 0.00 0.00 0.00 94 1013.7
20181209114957 70 103 2.0 8.0 0.00 0.00 0.00 94 1013.6
20181209114457 70 160 0.0 6.0 0.00 0.00 0.00 94 1013.7
20181209113957 69 174 2.0 8.0 0.00 0.00 0.00 94 1013.7
20181209113457 69 142 4.0 11.0 0.00 0.00 0.00 94 1013.6
20181209112957 69 133 2.0 11.0 0.00 0.00 0.00 94 1013.8
20181209112457 69 127 2.0 11.0 0.00 0.00 0.00 94 1013.8
20181209111957 69 112 6.0 13.0 0.00 0.00 0.00 95 1013.8
20181209111457 69 123 6.0 15.0 0.00 0.00 0.00 95 1013.8
20181209110957 69 106 0.0 15.0 0.00 0.00 0.00 95 1013.8
20181209110457 69 148 2.0 4.0 0.00 0.00 0.00 95 1013.8
20181209105957 69 145 0.0 11.0 0.00 0.00 0.00 95 1013.8
20181209105457 68 150 2.0 13.0 0.00 0.00 0.00 95 1013.8
20181209104957 68 109 6.0 13.0 0.00 0.00 0.00 95 1013.9
20181209104457 68 132 2.0 6.0 0.00 0.00 0.00 95 1013.9
20181209103958 68 111 0.0 6.0 0.00 0.00 0.00 94 1014.0
20181209103457 68 111 0.0 6.0 0.00 0.00 0.00 94 1013.9
20181209102957 68 116 0.0 4.0 0.00 0.00 0.00 94 1014.0
20181209102457 68 117 2.0 8.0 0.00 0.00 0.00 94 1014.1
20181209101957 68 121 0.0 8.0 0.00 0.00 0.00 94 1014.0
20181209101457 68 183 2.0 4.0 0.00 0.00 0.00 94 1013.9
20181209100957 68 183 0.0 6.0 0.00 0.00 0.00 94 1013.9
20181209100457 68 133 4.0 6.0 0.00 0.00 0.00 93 1013.9
20181209095957 69 129 2.0 11.0 0.00 0.00 0.00 93 1014.0
20181209095457 69 100 2.0 15.0 0.00 0.00 0.00 93 1014.0
20181209094957 69 125 2.0 15.0 0.00 0.00 0.00 93 1014.0
20181209094458 69 115 15.0 15.0 0.00 0.00 0.00 93 1014.1
20181209093957 69 103 6.0 11.0 0.00 0.00 0.00 93 1014.3
20181209093457 69 123 2.0 11.0 0.00 0.00 0.00 93 1014.3
20181209092957 69 128 2.0 11.0 0.00 0.00 0.00 93 1014.5
20181209092457 69 155 4.0 13.0 0.00 0.00 0.00 92 1014.5
20181209091957 69 104 2.0 13.0 0.00 0.00 0.00 92 1014.7
20181209091457 69 129 0.0 6.0 0.00 0.00 0.00 92 1014.7
20181209090957 69 117 0.0 6.0 0.00 0.00 0.00 92 1015.0
20181209090457 69 129 0.0 6.0 0.00 0.00 0.00 92 1015.1
20181209085957 69 112 4.0 13.0 0.00 0.00 0.00 92 1015.1
20181209085457 69 112 0.0 15.0 0.00 0.00 0.00 92 1015.2
20181209084957 69 130 0.0 15.0 0.00 0.00 0.00 92 1015.3
20181209084457 68 108 6.0 6.0 0.00 0.00 0.00 91 1015.3
20181209083957 68 109 0.0 6.0 0.00 0.00 0.00 91 1015.4
20181209083457 68 109 2.0 6.0 0.00 0.00 0.00 91 1015.6
20181209082957 68 109 2.0 6.0 0.00 0.00 0.00 91 1015.6
20181209082457 68 109 0.0 6.0 0.00 0.00 0.00 90 1015.7
20181209081957 68 109 2.0 8.0 0.00 0.00 0.00 90 1015.8
20181209081457 68 99 2.0 11.0 0.00 0.00 0.00 90 1015.9
20181209080957 68 106 4.0 11.0 0.00 0.00 0.00 90 1015.9
20181209080457 68 108 0.0 6.0 0.00 0.00 0.00 90 1016.0
20181209075957 68 108 0.0 6.0 0.00 0.00 0.00 90 1016.0
20181209075457 68 102 2.0 15.0 0.00 0.00 0.00 89 1016.1
20181209074957 68 106 0.0 15.0 0.00 0.00 0.00 89 1016.1
20181209074457 68 105 4.0 11.0 0.00 0.00 0.00 89 1016.1
20181209073957 68 116 6.0 11.0 0.00 0.00 0.00 89 1016.2
20181209073457 68 131 4.0 11.0 0.00 0.00 0.00 89 1016.3
20181209072957 68 133 2.0 8.0 0.00 0.00 0.00 89 1016.4
20181209072457 68 109 0.0 11.0 0.00 0.00 0.00 89 1016.6
20181209071957 68 112 0.0 11.0 0.00 0.00 0.00 89 1016.7
20181209071458 68 115 2.0 4.0 0.00 0.00 0.00 89 1016.8
20181209070957 68 115 4.0 4.0 0.00 0.00 0.00 89 1016.9
20181209070457 68 119 0.0 2.0 0.00 0.00 0.00 89 1017.0
20181209065957 68 119 0.0 6.0 0.00 0.00 0.00 89 1017.1
20181209065457 68 119 0.0 6.0 0.00 0.00 0.00 89 1017.1
20181209064957 68 115 0.0 6.0 0.00 0.00 0.00 89 1017.2
20181209064457 68 108 4.0 6.0 0.00 0.00 0.00 89 1017.3
20181209063957 68 112 2.0 11.0 0.00 0.00 0.00 89 1017.3
20181209063457 68 115 4.0 11.0 0.00 0.00 0.00 89 1017.3
20181209062957 68 112 0.0 11.0 0.00 0.00 0.00 89 1017.3
20181209062457 68 113 0.0 11.0 0.00 0.00 0.00 89 1017.3
20181209061957 68 113 4.0 6.0 0.00 0.00 0.00 89 1017.4
20181209061457 68 108 0.0 8.0 0.00 0.00 0.00 89 1017.4
20181209060957 68 107 0.0 11.0 0.00 0.00 0.00 89 1017.5
20181209060457 67 95 4.0 11.0 0.00 0.00 0.00 89 1017.6
20181209055957 67 108 2.0 6.0 0.00 0.00 0.00 89 1017.7
20181209055457 68 113 2.0 6.0 0.00 0.00 0.00 89 1017.8
20181209054958 68 106 2.0 6.0 0.00 0.00 0.00 88 1017.9
20181209054457 68 105 2.0 6.0 0.00 0.00 0.00 88 1018.0
20181209053957 68 105 4.0 6.0 0.00 0.00 0.00 88 1018.0
20181209053457 68 104 0.0 11.0 0.00 0.00 0.00 88 1018.2
20181209052957 68 104 2.0 11.0 0.00 0.00 0.00 88 1018.2
20181209052457 68 110 4.0 6.0 0.00 0.00 0.00 88 1018.3
20181209051957 68 110 2.0 6.0 0.00 0.00 0.00 88 1018.3
20181209051457 68 111 0.0 6.0 0.00 0.00 0.00 88 1018.4
20181209050957 68 111 0.0 4.0 0.00 0.00 0.00 88 1018.5
20181209050457 68 119 0.0 11.0 0.00 0.00 0.00 88 1018.5
20181209045957 67 121 2.0 11.0 0.00 0.00 0.00 88 1018.5
20181209045457 67 110 4.0 6.0 0.00 0.00 0.00 88 1018.6
20181209044957 67 104 0.0 4.0 0.00 0.00 0.00 89 1018.8
20181209044457 67 105 0.0 4.0 0.00 0.00 0.00 89 1018.7
20181209043957 67 102 0.0 6.0 0.00 0.00 0.00 89 1018.8
20181209043457 67 104 4.0 6.0 0.00 0.00 0.00 89 1018.9
20181209042957 66 110 2.0 4.0 0.00 0.00 0.00 90 1018.9
20181209042457 66 110 0.0 2.0 0.00 0.00 0.00 90 1019.1
20181209041957 66 110 0.0 2.0 0.00 0.00 0.00 90 1019.1
20181209041457 66 110 0.0 2.0 0.00 0.00 0.00 90 1019.1
20181209040957 66 110 0.0 0.0 0.00 0.00 0.00 90 1019.2
20181209040457 66 110 0.0 2.0 0.00 0.00 0.00 90 1019.3
20181209035957 66 110 0.0 4.0 0.00 0.00 0.00 90 1019.4
20181209035457 66 110 2.0 4.0 0.00 0.00 0.00 90 1019.3
20181209034957 66 110 0.0 2.0 0.00 0.00 0.00 90 1019.4